Погода в Межевом

Украина / Донецкая область     47°57′59″N   38°04′14″E
темп.,
°C
ветер,
м/с
пор.,
м/с
влажн.,
%
обл.,
%
осадки,
мм/ч
давл.,
гПа
погр.,
м
24 мая, вт
вт2400:00+11св235725 0.0 100969
03:00+10св115940 0.0 100910
06:00+11ссз1261100 0.0 101069
09:00+14ссз335293 0.0 1011800
12:00+17з233774 0.1 10102422
15:00+17сз343199 0.1 10112708
18:00+16сз344380 0.0 10121260
21:00+12ссз115224 0.0 101422
25 мая, ср
ср2500:00+11з236335 0.0 101577
03:00+12зсз256378 0.0 1015169
06:00+11зсз24680 0.0 1016143
09:00+16з46465 0.0 10171039
12:00+18зсз563844 0.0 10172427
15:00+20зсз553497 0.0 10172649
18:00+17зсз4547100 0.0 10181159
21:00+14зсз115664 0.0 101912
26 мая, чт
чт2600:00+14зюз235931 0.0 101954
03:00+12з23698 0.0 102070
06:00+12з136714 0.0 101993
09:00+18юз24445 0.0 1019681
12:00+21ююз563669 0.0 10182238
15:00+21юз6843100 0.0 10162585
18:00+14з61189100 1.9 1017836
21:00+13юз41289100 2.9 1017756
27 мая, пт
пт2700:00+13зюз4108212 0.0 1017439
03:00+11зюз38915 0.0 1016188
06:00+12зюз411895 0.0 1016392
09:00+18з68605 0.0 1016908
12:00+21з69448 0.0 10161949
15:00+23з684197 0.0 10152350
18:00+20з3653100 0.0 1015802
21:00+18з386197 0.0 1015363
28 мая, сб
сб2800:00+15юз257290 0.0 1015117
03:00+16юз3868100 0.0 1014233
06:00+16юз3107094 0.0 1014333
09:00+20юз510505 0.0 1013878
12:00+24юз784219 0.0 10132044
15:00+24юз6743100 0.0 10122162
18:00+22юз58545 0.0 1013968
21:00+18ююз49676 0.0 1014279